WESTFORD NEEDLES, 2530

Orbit data source: Space-Track

WESTFORD NEEDLES, 2530 is space debris in LEO originally from a launch on Thu, 09 May 1963 UTC launched from the Air Force Western Test Range (AFWTR). Debris objects in space refer to the collection of defunct objects orbiting the Earth. Examples of debris include non-operational satellites, rocket bodies, and fragments generated from explosions, collisions, or faulty payload assembly.

Loading next visibility...
WESTFORD NEEDLES details
Identifier
2530, 1963-014AJ
Orbit
LEO
Last TLE update11 hours ago
Origin
Flag of USUSAF SSD (US)
ManufacturerUnknown
MissionSpacecraft
Bus & MotorUnknown
MassUnknown
Launch date (UTC)
1963-05-09 (62 years ago)
Launch vehicleUnknown
Launch site
Air Force Western Test Range (AFWTR)
Object type
Payload
Rocket body
Debris
Shape & HBRUnknown
Radar Cross SectionMedium (>0.1 m² and <1 m²)

Expand to show TLE details & history

TLE from 11 hours ago
0 WESTFORD NEEDLES
1  2530U 63014AJ  24356.03886799  .00000137  00000-0  59920-1 0  9991
2  2530  87.6507 200.9572 0230949 340.5148 177.5846  8.67960755892462
Epoch: 2024-12-21T00:55Z
Definitive object data (Epoch: 2024-12-21T00:55:58.194Z)
Latitude21.77891°
Longitude-84.06664°
Altitude3,856.31 km
Speed6.17 km/s
True Right ascension01h 20m 05s
True Declination21° 41' 47"
Sunlit
Object was in daylight at TLE epoch
Visualization TLE readout
Latitude76.45321°
Longitude-92.9337°
Altitude3,759.619 km
Speed6.238 km/s
Apparent Right ascension23h 16m 58s
Apparent Declination39° 21' 47"
Sunlit
Object is in daylight
Visualization observer readout
Local Sidereal Time10:35:12
Azimuth351.816° N
Elevation-10.149°
Doppler factor1
Orbital elements
Apogee altitude3,852.188 km
Perigee altitude3,390.318 km
Semi-major axis9,999.39 km
Eccentricity0.0230949
Inclination87.6507°
RAAN200.9572°
Arg. of periapsis340.5148°
True anomaly177.693°
Mean anomaly177.5846°
Eccentric anomaly177.63911°
Mean motion2.17062 °/min
BSTAR0.05992
Orbital period165.85 mins
Loading maneuver chart data...

WESTFORD NEEDLES Visibility forecast

Observer location: undefined°, undefined

Span
Click to sort rows by Start time (UTC) header in descending order
Start Az.
Max El. time (UTC)
Max El. Az.
Max El.
End time (UTC)
End Az.
35 mins2024-12-21 13:33:33.499Z160.547° S2024-12-21 13:50:33.499Z81.812° E43.103°2024-12-21 14:08:33.499Z4.445° NNE
30 mins2024-12-21 16:24:33.499Z234.067° WSW2024-12-21 16:38:33.499Z293.029° NW28.909°2024-12-21 16:54:33.499Z353.404° N
22 mins2024-12-21 22:38:33.499Z18.119° NNE2024-12-21 22:49:33.499Z55.021° ENE16.799°2024-12-21 23:00:33.499Z90.977° ESE
38 mins2024-12-22 01:22:33.499Z1.012° NNE2024-12-22 01:40:33.499Z81.118° E43.926°2024-12-22 02:00:33.499Z172.735° S
30 mins2024-12-22 04:09:33.499Z346.709° N2024-12-22 04:24:33.499Z291.974° WNW28.802°2024-12-22 04:39:33.499Z240.085° WSW
|